THY9634 LTAC-LTBJ

Flight info

Callsign THY9634
Flight time N/A
Altitude 32000
Route HALIL UT54 KULAR
Aircraft B738/M-SDE2E3FGHIRWXY/LB1

Departure

Time N/A
Airport Esenboğa International Airport (LTAC)

Arrival

Time 2026-05-07 22:21
Airport Adnan Menderes International Airport (LTBJ)
Time Latitude Longitude Altitude Speed Heading
2026-05-07 21:37 40.10860 32.53870 26596 ft 455 kts 193°
2026-05-07 21:37 40.07779 32.52870 27102 ft 456 kts 203°
2026-05-07 21:37 40.04850 32.51247 27733 ft 453 kts 213°
2026-05-07 21:37 40.02169 32.49183 28513 ft 447 kts 218°
2026-05-07 21:38 39.99639 32.46943 29248 ft 444 kts 221°
2026-05-07 21:38 39.97114 32.44610 29919 ft 443 kts 222°
2026-05-07 21:38 39.94662 32.42257 30574 ft 441 kts 224°
2026-05-07 21:38 39.92226 32.39860 31268 ft 440 kts 223°
2026-05-07 21:39 39.89644 32.37653 31914 ft 443 kts 217°
2026-05-07 21:39 39.86826 32.35929 32139 ft 458 kts 205°
2026-05-07 21:39 39.80520 32.33979 32169 ft 463 kts 194°
2026-05-07 21:40 39.74291 32.32198 32164 ft 447 kts 212°
2026-05-07 21:40 39.71744 32.29869 32171 ft 430 kts 233°
2026-05-07 21:40 39.69896 32.26914 32180 ft 425 kts 242°
2026-05-07 21:41 39.66568 32.20613 32161 ft 420 kts 243°
2026-05-07 21:41 39.63224 32.14361 32160 ft 421 kts 242°
2026-05-07 21:42 39.59779 32.08199 32159 ft 423 kts 241°
2026-05-07 21:42 39.56256 32.02076 32155 ft 422 kts 240°
2026-05-07 21:43 39.52732 31.96021 32153 ft 423 kts 240°
2026-05-07 21:43 39.49177 31.89955 32157 ft 422 kts 240°
2026-05-07 21:44 39.45634 31.83923 32165 ft 422 kts 240°
2026-05-07 21:44 39.42096 31.77914 32167 ft 422 kts 240°
2026-05-07 21:45 39.38515 31.71846 32173 ft 422 kts 240°
2026-05-07 21:45 39.31718 31.60361 32176 ft 421 kts 240°
2026-05-07 21:46 39.23911 31.47206 32178 ft 420 kts 240°
2026-05-07 21:46 38.83279 30.79652 32192 ft 419 kts 239°
2026-05-07 21:47 38.72639 30.60636 32212 ft 396 kts 262°
2026-05-07 21:47 38.72221 30.57175 32213 ft 388 kts 273°
2026-05-07 21:47 38.72209 30.51848 32209 ft 388 kts 276°
2026-05-07 21:48 38.72510 30.38084 32210 ft 387 kts 277°
2026-05-07 21:48 38.72819 30.24317 32204 ft 388 kts 277°
2026-05-07 21:49 38.73052 30.10548 32206 ft 388 kts 276°
2026-05-07 21:49 38.73061 29.96741 32207 ft 392 kts 271°
2026-05-07 21:50 38.71447 29.82839 32201 ft 396 kts 265°
2026-05-07 21:50 38.69322 29.69062 32198 ft 397 kts 265°
2026-05-07 21:51 38.67503 29.55184 32205 ft 394 kts 267°
2026-05-07 21:51 38.65845 29.41401 32204 ft 394 kts 268°
2026-05-07 21:52 38.64543 29.27519 32190 ft 392 kts 268°
2026-05-07 21:52 38.63291 29.13617 32183 ft 394 kts 268°
2026-05-07 21:53 38.61929 28.99777 32177 ft 394 kts 267°
2026-05-07 21:53 38.60509 28.85883 32175 ft 395 kts 268°
2026-05-07 21:54 38.58557 28.66789 32168 ft 394 kts 267°
2026-05-07 21:54 38.57790 28.59901 32163 ft 394 kts 264°
2026-05-07 21:55 38.56429 28.53031 32167 ft 399 kts 258°
2026-05-07 21:55 38.54836 28.46295 32166 ft 399 kts 258°
2026-05-07 21:56 38.53282 28.39600 31638 ft 391 kts 259°
2026-05-07 21:56 38.52529 28.36269 30760 ft 395 kts 259°
2026-05-07 21:56 38.51779 28.32916 30279 ft 390 kts 258°
2026-05-07 21:57 38.51035 28.29587 29723 ft 388 kts 258°
2026-05-07 21:57 38.50314 28.26334 29173 ft 385 kts 259°
2026-05-07 21:57 38.49692 28.23061 28780 ft 377 kts 262°
2026-05-07 21:57 38.49198 28.19790 28497 ft 373 kts 264°
2026-05-07 21:58 38.48764 28.16560 27914 ft 373 kts 264°
2026-05-07 21:58 38.48338 28.13311 27255 ft 374 kts 264°
2026-05-07 21:58 38.47903 28.10064 26781 ft 370 kts 264°
2026-05-07 21:58 38.47458 28.06827 26130 ft 369 kts 264°
2026-05-07 21:59 38.47013 28.03647 25468 ft 365 kts 264°
2026-05-07 21:59 38.46568 28.00512 24758 ft 362 kts 263°
2026-05-07 21:59 38.46116 27.97358 24027 ft 360 kts 263°
2026-05-07 21:59 38.45668 27.94245 23311 ft 357 kts 263°
2026-05-07 22:00 38.45221 27.91156 22671 ft 353 kts 263°
2026-05-07 22:00 38.44782 27.88134 22036 ft 349 kts 263°
2026-05-07 22:00 38.44340 27.85103 21440 ft 346 kts 263°
2026-05-07 22:00 38.43905 27.82122 20876 ft 346 kts 263°
2026-05-07 22:01 38.43465 27.79111 20445 ft 341 kts 263°
2026-05-07 22:01 38.43032 27.76152 19941 ft 340 kts 263°
2026-05-07 22:01 38.42606 27.73239 19473 ft 338 kts 263°
2026-05-07 22:01 38.42175 27.70296 18976 ft 336 kts 263°
2026-05-07 22:02 38.41752 27.67412 18642 ft 330 kts 263°
2026-05-07 22:02 38.41332 27.64557 18281 ft 325 kts 263°
2026-05-07 22:02 38.40920 27.61759 17860 ft 323 kts 263°
2026-05-07 22:02 38.40550 27.59247 17479 ft 321 kts 263°
2026-05-07 22:03 38.40138 27.56455 17050 ft 319 kts 262°
2026-05-07 22:03 38.39724 27.53653 16609 ft 317 kts 263°
2026-05-07 22:03 38.39317 27.50913 16178 ft 315 kts 262°
2026-05-07 22:03 38.38911 27.48192 15760 ft 313 kts 262°
2026-05-07 22:04 38.38511 27.45508 15330 ft 311 kts 262°
2026-05-07 22:04 38.38105 27.42787 14898 ft 310 kts 262°
2026-05-07 22:04 38.37707 27.40132 14479 ft 308 kts 262°
2026-05-07 22:04 38.37303 27.37439 14035 ft 306 kts 262°
2026-05-07 22:05 38.36904 27.34792 13626 ft 304 kts 261°
2026-05-07 22:05 38.36510 27.32173 13218 ft 302 kts 261°
2026-05-07 22:05 38.36119 27.29573 12770 ft 300 kts 261°
2026-05-07 22:05 38.35731 27.27012 12382 ft 290 kts 261°
2026-05-07 22:06 38.35357 27.24539 12000 ft 281 kts 261°
2026-05-07 22:06 38.34992 27.22127 11617 ft 274 kts 261°
2026-05-07 22:06 38.34632 27.19751 11240 ft 270 kts 261°
2026-05-07 22:06 38.34283 27.17437 10873 ft 265 kts 261°
2026-05-07 22:07 38.33938 27.15158 10522 ft 261 kts 261°
2026-05-07 22:07 38.33597 27.12921 10325 ft 252 kts 261°
2026-05-07 22:07 38.33269 27.10766 10285 ft 252 kts 261°
2026-05-07 22:07 38.33064 27.08530 10080 ft 256 kts 273°
2026-05-07 22:08 38.33450 27.06346 9793 ft 251 kts 298°
2026-05-07 22:08 38.34477 27.04636 9497 ft 242 kts 318°
2026-05-07 22:08 38.35799 27.03356 9192 ft 235 kts 331°
2026-05-07 22:08 38.37307 27.02697 8871 ft 231 kts 352°
2026-05-07 22:09 38.38898 27.02314 8456 ft 230 kts 343°
2026-05-07 22:09 38.40376 27.01661 8181 ft 224 kts 339°
2026-05-07 22:09 38.41825 27.00936 7963 ft 221 kts 338°
2026-05-07 22:09 38.43253 27.00210 7664 ft 222 kts 338°
2026-05-07 22:10 38.44681 26.99488 7401 ft 221 kts 340°
2026-05-07 22:10 38.46143 26.98893 7213 ft 216 kts 344°
2026-05-07 22:10 38.47610 26.98498 6899 ft 223 kts
2026-05-07 22:10 38.49067 26.99108 6580 ft 224 kts 40°
2026-05-07 22:11 38.49871 27.00785 6353 ft 224 kts 75°
2026-05-07 22:11 38.50105 27.02691 6262 ft 216 kts 82°
2026-05-07 22:11 38.50252 27.04536 6192 ft 203 kts 82°
2026-05-07 22:11 38.50390 27.06292 6065 ft 193 kts 83°
2026-05-07 22:12 38.50469 27.07961 5943 ft 187 kts 97°
2026-05-07 22:12 38.50029 27.09506 5968 ft 186 kts 114°
2026-05-07 22:12 38.49438 27.10969 5972 ft 188 kts 125°
2026-05-07 22:12 38.48356 27.11881 5950 ft 190 kts 171°
2026-05-07 22:13 38.47041 27.11952 5987 ft 192 kts 181°
2026-05-07 22:13 38.45678 27.11936 5946 ft 196 kts 180°
2026-05-07 22:13 38.44326 27.11930 5712 ft 198 kts 180°
2026-05-07 22:13 38.42941 27.11930 5394 ft 197 kts 179°
2026-05-07 22:14 38.41608 27.11622 5069 ft 196 kts 210°
2026-05-07 22:14 38.40786 27.10348 4828 ft 188 kts 248°
2026-05-07 22:14 38.40358 27.08766 4610 ft 187 kts 252°
2026-05-07 22:14 38.40247 27.07172 4375 ft 185 kts 288°
2026-05-07 22:15 38.41050 27.05964 4165 ft 182 kts 336°
2026-05-07 22:15 38.42254 27.05483 3940 ft 182 kts 346°
2026-05-07 22:15 38.43475 27.05066 3754 ft 179 kts 345°
2026-05-07 22:15 38.44649 27.04769 3612 ft 168 kts 358°
2026-05-07 22:16 38.45777 27.05006 3429 ft 164 kts 32°
2026-05-07 22:16 38.46399 27.06145 3279 ft 157 kts 77°
2026-05-07 22:16 38.46511 27.07508 3090 ft 156 kts 103°
2026-05-07 22:16 38.45947 27.08659 2994 ft 152 kts 131°
2026-05-07 22:17 38.45242 27.09679 2996 ft 157 kts 129°
2026-05-07 22:17 38.44544 27.10731 2993 ft 154 kts 129°
2026-05-07 22:17 38.43844 27.11796 2998 ft 157 kts 128°
2026-05-07 22:17 38.42988 27.12632 2964 ft 161 kts 161°
2026-05-07 22:18 38.41863 27.12892 2708 ft 163 kts 171°
2026-05-07 22:18 38.39823 27.13344 2250 ft 141 kts 169°
2026-05-07 22:18 38.38866 27.13577 2093 ft 142 kts 169°
2026-05-07 22:19 38.37889 27.13799 1885 ft 140 kts 172°
2026-05-07 22:19 38.36933 27.13976 1703 ft 139 kts 174°
2026-05-07 22:19 38.35981 27.14154 1518 ft 137 kts 172°
2026-05-07 22:19 38.35038 27.14350 1334 ft 135 kts 172°
2026-05-07 22:20 38.34104 27.14542 1153 ft 139 kts 173°
2026-05-07 22:20 38.33161 27.14753 960 ft 135 kts 171°
2026-05-07 22:20 38.32238 27.14935 685 ft 140 kts 177°
2026-05-07 22:20 38.31291 27.15086 587 ft 132 kts 170°
2026-05-07 22:21 38.30401 27.15344 454 ft 125 kts 169°
2026-05-07 22:21 38.29652 27.15563 423 ft 79 kts 169°
2026-05-07 22:21 38.29221 27.15696 418 ft 58 kts 166°
2026-05-07 22:21 38.28870 27.15782 412 ft 31 kts 178°
2026-05-07 22:22 38.28731 27.15730 412 ft 19 kts 199°
2026-05-07 22:22 38.28606 27.15671 413 ft 17 kts 218°
2026-05-07 22:22 38.28568 27.15545 415 ft 13 kts 257°
2026-05-07 22:22 38.28567 27.15442 418 ft 10 kts 310°
2026-05-07 22:23 38.28641 27.15407 419 ft 12 kts 346°
2026-05-07 22:23 38.28735 27.15382 419 ft 15 kts 345°
2026-05-07 22:23 38.28838 27.15348 419 ft 14 kts 347°
2026-05-07 22:23 38.28936 27.15319 420 ft 13 kts 346°
2026-05-07 22:24 38.29007 27.15270 422 ft 10 kts 291°
2026-05-07 22:24 38.29044 27.15215 423 ft 8 kts 311°
2026-05-07 22:24 38.29053 27.15143 424 ft 7 kts 258°
2026-05-07 22:24 38.29049 27.15124 424 ft 0 kts 256°